Wetterdaten der Wetterstation 58769 Nachrodt-Wiblingwerde

Letzte Wetterlage 27.11.2014 10:04
Wetterdiagramm
Tabellarische Darstellung
Datum Temperatur Windchill Feuchte Luftdruck Windrichtung Windstärke Niederschlag
27.11.2014 10:14 5,5 °C 5,5 °C 84 % 1008,4 hPa 338 0.7 0,00 mm
27.11.2014 10:04 5,4 °C 5,4 °C 84 % 1008,4 hPa 315 0.7 0,00 mm
27.11.2014 09:54 5,4 °C 5,4 °C 84 % 1008,3 hPa 315 1.0 0,00 mm
27.11.2014 09:44 5,3 °C 5,3 °C 84 % 1008,4 hPa 0 0.7 0,00 mm
27.11.2014 09:34 5,2 °C 5,2 °C 84 % 1008,5 hPa 0 0.3 0,00 mm
27.11.2014 09:24 5,1 °C 5,1 °C 84 % 1008,6 hPa 0 1.0 0,00 mm
27.11.2014 09:14 5,1 °C 5,1 °C 84 % 1008,6 hPa 0 1.0 0,00 mm
27.11.2014 09:04 5,0 °C 5,0 °C 84 % 1008,5 hPa 0 0.3 0,00 mm
27.11.2014 08:54 5,0 °C 5,0 °C 84 % 1008,6 hPa 338 0.0 0,00 mm
27.11.2014 08:44 4,9 °C 4,9 °C 85 % 1008,7 hPa 315 0.3 0,00 mm
27.11.2014 08:34 4,9 °C 4,9 °C 85 % 1008,6 hPa 315 0.3 0,00 mm
27.11.2014 08:24 4,9 °C 4,9 °C 85 % 1008,5 hPa 315 0.7 0,00 mm
27.11.2014 08:14 4,8 °C 4,8 °C 85 % 1008,5 hPa 315 0.7 0,00 mm
27.11.2014 08:04 4,8 °C 4,8 °C 85 % 1008,4 hPa 315 0.7 0,00 mm
27.11.2014 07:59 4,8 °C 4,8 °C 85 % 1008,4 hPa 315 0.7 0,00 mm
27.11.2014 07:54 4,7 °C 4,7 °C 85 % 1008,5 hPa 45 0.3 0,00 mm
27.11.2014 07:44 4,7 °C 4,7 °C 85 % 1008,5 hPa 45 0.7 0,00 mm
27.11.2014 07:34 4,7 °C 4,7 °C 85 % 1008,5 hPa 45 0.3 0,00 mm
27.11.2014 07:24 4,7 °C 4,7 °C 85 % 1008,4 hPa 0 0.3 0,00 mm
27.11.2014 07:14 4,7 °C 4,7 °C 85 % 1008,5 hPa 0 0.7 0,00 mm
27.11.2014 07:04 4,7 °C 4,7 °C 85 % 1008,4 hPa 0 0.7 0,00 mm
27.11.2014 06:59 4,7 °C 4,7 °C 85 % 1008,5 hPa 0 0.3 0,00 mm
27.11.2014 06:54 4,7 °C 4,7 °C 85 % 1008,5 hPa 0 0.7 0,00 mm
27.11.2014 06:44 4,6 °C 4,6 °C 85 % 1008,5 hPa 0 0.7 0,00 mm
27.11.2014 06:34 4,6 °C 4,6 °C 85 % 1008,5 hPa 0 0.7 0,00 mm
Empfehlen Sie wetter.com
| Mehr
Neue Wetterwarnung

Neue Niederschlagsmeldung
Neue Meldung
Regen Liveticker
    sehr starker Regen/Gewitter
    starker Regen/Gewitter
    mäßiger bis starker Regen
    mäßiger Regen
    leichter bis mäßiger Regen
    kein Regen